Location: Hastringsfeld
(50.9620°N, 10.4787°E)
Time: 03:43:05
(UTC+00:00)

Cosmos 2285 Rocket - Pass Details

Date: 26 September 2023
Orbit: 970 x 999 km, 74.0° (Epoch: 29 November)

Event Time Altitude Azimuth Distance (km) Brightness Sun altitude
Rises 02:37:23 0° 336° (NNW) 3,676 7.1 -23.8°
Reaches altitude 10° 02:39:58 10° 340° (NNW) 2,726 6.4 -23.4°
Maximum altitude 02:46:14 62° 61° (ENE) 1,087 4.4 -22.6°
Drops below altitude 10° 02:52:28 10° 142° (SE) 2,722 6.5 -21.7°
Sets 02:55:03 0° 146° (SE) 3,670 7.1 -21.3°
